This demonstration page uses our WeatherBlox Daily Observations layout. Learn more.

Left ArrowRight Arrow

Hourly Observations for March 25, 2020

Temp ( °F °C ) Dew Point ( °F °C ) Humidity (%) Winds ( mph kmh ) Pressure ( in mb ) Visibility ( mi km ) Precip ( " mm )
12:56 am 00:56 Clear 47 8.3 44 6.7 90 90 SSW 13 20 29.79 1009 10 16 0.00 0.00
1:56 am 01:56 Clear 46 7.8 43 6.1 89 89 SSW 12 19 29.77 1008 10 16 0.00 0.00
2:56 am 02:56 Clear 48 8.9 43 6.1 83 83 SW 14 22 29.76 1008 10 16 0.00 0.00
3:56 am 03:56 Clear 48 8.9 41 5 77 77 SW 10 17 29.73 1007 10 16 0.00 0.00
4:56 am 04:56 Clear 44 6.7 40 4.4 85 85 SW 7 11 29.72 1006 10 16 0.00 0.00
5:56 am 05:56 Mostly Clear 38 3.3 36 2.2 93 93 SSW 3 6 29.72 1007 10 16 0.00 0.00
6:56 am 06:56 Clear 39 3.9 37 2.8 93 93 ESE 3 6 29.72 1007 10 16 0.00 0.00
7:56 am 07:56 Sunny with Mist and Fog 36 2.2 35 1.7 97 97 E 8 13 29.72 1006 3 5 0.00 0.00
8:56 am 08:56 Sunny with Mist and Fog 42 5.6 42 5.6 100 100 E 7 11 29.70 1006 4 6 0.00 0.00
9:13 am 09:13 Partly Cloudy with Mist and Fog 43 6 43 6 100 100 E 5 7 29.74 1007 4 6 0.00 0.00
9:23 am 09:23 Mostly Cloudy with Mist and Fog 45 7 45 7 100 100 ESE 5 7 29.73 1007 5 8 0.00 0.00
9:56 am 09:56 Mostly Sunny 47 8.3 45 7.2 93 93 SSE 8 13 29.70 1006 10 16 0.00 0.00
10:56 am 10:56 Partly Cloudy 55 12.8 48 8.9 77 77 SW 10 17 29.68 1005 10 16 0.00 0.00
11:56 am 11:56 Sunny 59 15 47 8.3 64 64 W 6 9 29.66 1004 10 16 0.00 0.00
12:56 pm 12:56 Sunny 64 17.8 46 7.8 52 52 WSW 8 13 29.65 1004 10 16 0.00 0.00
1:56 pm 13:56 Sunny 70 21.1 44 6.7 39 39 NW 10 17 29.64 1004 10 16 0.00 0.00
2:56 pm 14:56 Sunny 72 22.2 42 5.6 34 34 NNW 14 22 29.62 1003 10 16 0.00 0.00
3:56 pm 15:56 Sunny 72 22.2 40 4.4 31 31 N 15 24 29.62 1003 10 16 0.00 0.00
4:56 pm 16:56 Sunny 72 22.2 38 3.3 29 29 N 15 24 29.64 1004 10 16 0.00 0.00
5:56 pm 17:56 Sunny 63 17.2 46 7.8 54 54 N 24 39 29.68 1005 10 16 0.00 0.00
6:56 pm 18:56 Sunny 56 13.3 44 6.7 65 65 NNE 22 35 29.72 1007 10 16 0.00 0.00
7:56 pm 19:56 Clear 48 8.9 41 5 77 77 NNE 16 26 29.78 1008 10 16 0.00 0.00
8:56 pm 20:56 Partly Cloudy 44 6.7 40 4.4 85 85 NNE 20 31 29.78 1009 10 16 0.00 0.00
9:03 pm 21:03 Mostly Cloudy 45 7 39 4 81 81 NNE 15 24 29.80 1009 10 16 0.00 0.00
9:56 pm 21:56 Cloudy 44 6.7 40 4.4 85 85 NNE 17 28 29.80 1009 10 16 0.00 0.00
10:56 pm 22:56 Cloudy 42 5.6 39 3.9 89 89 NNE 22 35 29.81 1009 10 16 0.00 0.00
11:56 pm 23:56 Cloudy 41 5 38 3.3 89 89 NNE 22 35 29.80 1009 10 16 0.00 0.00

Powered by AerisWeather